User: anonymous   Login
Location: Unspecified
(0.0000°N, 0.0000°E)
Time: 11:21:48
(UTC+00:00)
Language:

KORONAS-FOTON - Orbit

View from above orbital plane
View from above orbital plane
View from above satellite
View from above satellite

Ground track
Ground track

The orbit data is extracted from the following two-line orbital elements,

1 33504U 09003A   15144.14785034  .00002163  00000-0  12003-3 0  9995
2 33504 082.4436 262.4520 0020081 191.7387 168.3378 15.13083254347228
Epoch (UTC): 24 May 2015 03:32:54
Eccentricity: 0.0020081
inclination: 82.4436°
perigee height: 513 km
apogee height: 540 km
right ascension of ascending node: 262.4520°
argument of perigee: 191.7387°
revolutions per day: 15.13083254
mean anomaly at epoch: 168.3378°
orbit number at epoch: 34722

The dashed part of the orbit path shows where the satellite is in the earth's shadow,  

DLR